Location: Newark
(28.2239°N, 112.9771°E)
Time: 23:22:43
(UTC+00:00)

OTV 5 (USA 277) - Visible Passes

Search period start: 14 October 2019 00:00
Search period end: 24 October 2019 00:00
Orbit: 310 x 324 km, 54.5° (Epoch: 08 October)

Date Brightness Start Highest point End Pass type
(mag) Time Alt. Az. Time Alt. Az. Time Alt. Az.
19 Oct ? 21:32:48 10° NNE 21:33:54 12° NE 21:35:00 10° ENE visible
20 Oct ? 21:46:02 10° NNW 21:48:35 35° NE 21:51:07 10° ESE visible
21 Oct ? 22:00:29 10° NW 22:03:07 46° SW 22:05:43 10° SSE visible
22 Oct ? 20:44:10 17° ENE 20:44:10 17° ENE 20:45:28 10° E visible
23 Oct ? 20:59:16 27° SE 20:59:16 27° SE 21:00:41 10° SE visible
